EJU79CB LIRN-LICJ

Flight info

Callsign EJU79CB
Flight time 0h 52m
Altitude 19000
Route DELER DCT AMANO DCT ROSAS
Aircraft A320/M-SDE2E3FGHIJ1RWXYZ/LB1

Departure

Time 2026-05-04 01:58
Airport Naples International Airport (LIRN)

Arrival

Time 2026-05-04 02:51
Airport Falcone–Borsellino Airport (LICJ)
Time Latitude Longitude Altitude Speed Heading
2026-05-04 01:08 40.88241 14.28806 279 ft 0 kts 328°
2026-05-04 01:50 40.88237 14.28809 277 ft 3 kts 329°
2026-05-04 01:51 40.88214 14.28823 277 ft 4 kts 348°
2026-05-04 01:51 40.88188 14.28825 278 ft 4 kts 13°
2026-05-04 01:51 40.88165 14.28811 278 ft 4 kts 43°
2026-05-04 01:51 40.88157 14.28801 283 ft 0 kts 53°
2026-05-04 01:54 40.88158 14.28803 279 ft 0 kts 53°
2026-05-04 01:54 40.88159 14.28805 278 ft 2 kts 53°
2026-05-04 01:54 40.88186 14.28850 277 ft 10 kts 52°
2026-05-04 01:54 40.88244 14.28949 275 ft 16 kts 53°
2026-05-04 01:55 40.88318 14.29077 272 ft 18 kts 53°
2026-05-04 01:55 40.88394 14.29210 268 ft 20 kts 52°
2026-05-04 01:55 40.88473 14.29347 265 ft 17 kts 52°
2026-05-04 01:55 40.88556 14.29491 261 ft 21 kts 52°
2026-05-04 01:56 40.88645 14.29643 256 ft 23 kts 52°
2026-05-04 01:56 40.88732 14.29794 252 ft 21 kts 52°
2026-05-04 01:56 40.88781 14.29879 249 ft 10 kts 53°
2026-05-04 01:56 40.88835 14.29972 246 ft 16 kts 53°
2026-05-04 01:57 40.88913 14.30108 241 ft 20 kts 53°
2026-05-04 01:57 40.88985 14.30179 238 ft 11 kts 347°
2026-05-04 01:57 40.89059 14.30118 238 ft 14 kts 321°
2026-05-04 01:57 40.89039 14.30001 241 ft 19 kts 238°
2026-05-04 01:58 40.88825 14.29549 255 ft 101 kts 238°
2026-05-04 01:58 40.88318 14.28491 353 ft 162 kts 237°
2026-05-04 01:58 40.87704 14.27255 1233 ft 162 kts 231°
2026-05-04 01:58 40.86849 14.26255 2081 ft 164 kts 210°
2026-05-04 01:59 40.85736 14.25927 2629 ft 173 kts 177°
2026-05-04 01:59 40.84466 14.26165 2948 ft 194 kts 171°
2026-05-04 01:59 40.83125 14.26507 3566 ft 198 kts 171°
2026-05-04 01:59 40.81762 14.26835 4250 ft 199 kts 172°
2026-05-04 02:00 40.80390 14.27127 4931 ft 201 kts 174°
2026-05-04 02:00 40.79003 14.27390 5589 ft 203 kts 174°
2026-05-04 02:00 40.77596 14.27629 6222 ft 205 kts 174°
2026-05-04 02:00 40.76164 14.27854 6838 ft 208 kts 174°
2026-05-04 02:01 40.74711 14.28072 7427 ft 212 kts 174°
2026-05-04 02:01 40.73234 14.28285 8025 ft 215 kts 174°
2026-05-04 02:01 40.71742 14.28497 8630 ft 217 kts 174°
2026-05-04 02:01 40.70238 14.28890 9117 ft 229 kts 164°
2026-05-04 02:02 40.68640 14.29501 9396 ft 252 kts 163°
2026-05-04 02:02 40.66876 14.30182 9723 ft 276 kts 163°
2026-05-04 02:02 40.64958 14.30922 10144 ft 296 kts 164°
2026-05-04 02:02 40.62914 14.31708 10492 ft 317 kts 164°
2026-05-04 02:03 40.60754 14.32536 11025 ft 328 kts 164°
2026-05-04 02:03 40.58485 14.33028 11746 ft 334 kts 181°
2026-05-04 02:03 40.56190 14.32556 12512 ft 337 kts 199°
2026-05-04 02:03 40.53968 14.31527 13294 ft 340 kts 200°
2026-05-04 02:04 40.51730 14.30470 14050 ft 344 kts 200°
2026-05-04 02:04 40.49472 14.29398 14717 ft 347 kts 200°
2026-05-04 02:04 40.47190 14.28315 15400 ft 350 kts 200°
2026-05-04 02:04 40.44883 14.27228 16076 ft 354 kts 201°
2026-05-04 02:05 40.42557 14.26135 16739 ft 357 kts 201°
2026-05-04 02:05 40.40208 14.25033 17402 ft 360 kts 201°
2026-05-04 02:05 40.37833 14.23922 18059 ft 363 kts 201°
2026-05-04 02:05 40.35445 14.22807 18683 ft 367 kts 201°
2026-05-04 02:06 40.33026 14.21677 19057 ft 370 kts 201°
2026-05-04 02:06 40.30604 14.20546 19158 ft 366 kts 201°
2026-05-04 02:06 40.28260 14.19456 19185 ft 350 kts 201°
2026-05-04 02:06 40.26010 14.18412 19185 ft 335 kts 201°
2026-05-04 02:07 40.23861 14.17416 19183 ft 321 kts 201°
2026-05-04 02:07 40.21804 14.16459 19184 ft 307 kts 201°
2026-05-04 02:07 40.19813 14.15531 19184 ft 292 kts 201°
2026-05-04 02:07 40.17944 14.14663 19184 ft 279 kts 201°
2026-05-04 02:08 40.16128 14.13820 19188 ft 275 kts 201°
2026-05-04 02:08 40.14353 14.12993 19186 ft 274 kts 201°
2026-05-04 02:08 40.12534 14.12143 19190 ft 275 kts 201°
2026-05-04 02:08 40.11340 14.11583 19190 ft 275 kts 201°
2026-05-04 02:09 40.09538 14.10740 19194 ft 276 kts 201°
2026-05-04 02:09 40.07731 14.09897 19190 ft 276 kts 201°
2026-05-04 02:09 40.05923 14.09051 19190 ft 277 kts 201°
2026-05-04 02:09 40.04109 14.08209 19191 ft 277 kts 201°
2026-05-04 02:10 40.02294 14.07365 19192 ft 277 kts 201°
2026-05-04 02:10 40.00476 14.06517 19192 ft 278 kts 202°
2026-05-04 02:10 39.98657 14.05668 19192 ft 278 kts 202°
2026-05-04 02:10 39.96829 14.04817 19192 ft 279 kts 201°
2026-05-04 02:11 39.95002 14.03969 19190 ft 279 kts 201°
2026-05-04 02:11 39.93167 14.03120 19196 ft 280 kts 201°
2026-05-04 02:11 39.91331 14.02275 19194 ft 280 kts 201°
2026-05-04 02:11 39.89490 14.01424 19192 ft 281 kts 201°
2026-05-04 02:12 39.87641 14.00568 19197 ft 282 kts 201°
2026-05-04 02:12 39.85793 13.99718 19192 ft 282 kts 201°
2026-05-04 02:12 39.83938 13.98862 19190 ft 283 kts 201°
2026-05-04 02:12 39.82081 13.98006 19190 ft 284 kts 201°
2026-05-04 02:13 39.80223 13.97147 19193 ft 284 kts 201°
2026-05-04 02:13 39.78358 13.96285 19192 ft 285 kts 201°
2026-05-04 02:13 39.76492 13.95420 19192 ft 285 kts 201°
2026-05-04 02:13 39.74620 13.94553 19196 ft 286 kts 201°
2026-05-04 02:14 39.72746 13.93691 19195 ft 286 kts 201°
2026-05-04 02:14 39.70863 13.92824 19193 ft 287 kts 201°
2026-05-04 02:14 39.68983 13.91958 19197 ft 287 kts 201°
2026-05-04 02:14 39.67099 13.91091 19192 ft 288 kts 201°
2026-05-04 02:15 39.65210 13.90222 19195 ft 288 kts 201°
2026-05-04 02:15 39.63317 13.89353 19188 ft 289 kts 201°
2026-05-04 02:15 39.61420 13.88482 19194 ft 289 kts 202°
2026-05-04 02:15 39.59522 13.87609 19194 ft 290 kts 202°
2026-05-04 02:16 39.57616 13.86734 19193 ft 290 kts 201°
2026-05-04 02:16 39.55708 13.85858 19196 ft 291 kts 201°
2026-05-04 02:16 39.53803 13.84987 19192 ft 290 kts 201°
2026-05-04 02:16 39.51899 13.84118 19193 ft 290 kts 201°
2026-05-04 02:17 39.50002 13.83252 19196 ft 289 kts 201°
2026-05-04 02:17 39.48099 13.82387 19197 ft 289 kts 201°
2026-05-04 02:17 39.46204 13.81523 19194 ft 289 kts 201°
2026-05-04 02:17 39.44305 13.80655 19193 ft 289 kts 201°
2026-05-04 02:18 39.42404 13.79785 19189 ft 289 kts 202°
2026-05-04 02:18 39.40507 13.78919 19190 ft 290 kts 202°
2026-05-04 02:18 39.38605 13.78054 19195 ft 290 kts 202°
2026-05-04 02:18 39.36701 13.77189 19194 ft 290 kts 202°
2026-05-04 02:19 39.34798 13.76328 19191 ft 290 kts 202°
2026-05-04 02:19 39.32896 13.75466 19190 ft 290 kts 202°
2026-05-04 02:19 39.30997 13.74605 19192 ft 290 kts 202°
2026-05-04 02:19 39.29095 13.73742 19195 ft 290 kts 202°
2026-05-04 02:20 39.27191 13.72877 19196 ft 290 kts 202°
2026-05-04 02:20 39.25289 13.72016 19193 ft 290 kts 202°
2026-05-04 02:20 39.23388 13.71155 19193 ft 290 kts 202°
2026-05-04 02:20 39.21488 13.70299 19188 ft 290 kts 202°
2026-05-04 02:21 39.19579 13.69442 19190 ft 290 kts 202°
2026-05-04 02:21 39.17673 13.68585 19192 ft 290 kts 202°
2026-05-04 02:21 39.15764 13.67727 19195 ft 291 kts 202°
2026-05-04 02:21 39.13857 13.66869 19194 ft 290 kts 202°
2026-05-04 02:22 39.11948 13.66010 19191 ft 290 kts 202°
2026-05-04 02:22 39.10041 13.65153 19194 ft 291 kts 202°
2026-05-04 02:22 39.08132 13.64295 19193 ft 291 kts 202°
2026-05-04 02:22 39.06196 13.63425 19193 ft 291 kts 202°
2026-05-04 02:23 39.04316 13.62578 19196 ft 291 kts 202°
2026-05-04 02:23 39.02406 13.61719 19193 ft 291 kts 202°
2026-05-04 02:23 39.00499 13.60863 19184 ft 290 kts 202°
2026-05-04 02:23 38.98586 13.60006 19190 ft 292 kts 201°
2026-05-04 02:24 38.96663 13.59147 19194 ft 292 kts 201°
2026-05-04 02:24 38.94745 13.58290 19189 ft 293 kts 202°
2026-05-04 02:24 38.92819 13.57426 19189 ft 293 kts 202°
2026-05-04 02:24 38.90874 13.56552 19190 ft 293 kts 202°
2026-05-04 02:25 38.88954 13.55688 19192 ft 293 kts 202°
2026-05-04 02:25 38.87079 13.54770 19192 ft 291 kts 209°
2026-05-04 02:25 38.85374 13.53409 19193 ft 288 kts 222°
2026-05-04 02:25 38.84858 13.52847 19190 ft 287 kts 226°
2026-05-04 02:26 38.81783 13.47443 19188 ft 284 kts 239°
2026-05-04 02:26 38.80717 13.45315 19191 ft 284 kts 239°
2026-05-04 02:26 38.79641 13.43184 19184 ft 284 kts 239°
2026-05-04 02:27 38.78563 13.41057 19185 ft 285 kts 239°
2026-05-04 02:27 38.77487 13.38934 19186 ft 285 kts 239°
2026-05-04 02:27 38.76409 13.36810 19189 ft 285 kts 239°
2026-05-04 02:27 38.75329 13.34679 19187 ft 285 kts 239°
2026-05-04 02:28 38.74251 13.32551 19187 ft 285 kts 239°
2026-05-04 02:28 38.73174 13.30425 19081 ft 283 kts 239°
2026-05-04 02:28 38.72105 13.28312 18770 ft 282 kts 239°
2026-05-04 02:28 38.71039 13.26208 18457 ft 282 kts 239°
2026-05-04 02:29 38.69973 13.24108 18118 ft 281 kts 239°
2026-05-04 02:29 38.68912 13.22015 17800 ft 279 kts 239°
2026-05-04 02:29 38.67862 13.19943 17499 ft 277 kts 239°
2026-05-04 02:29 38.66811 13.17878 17184 ft 276 kts 239°
2026-05-04 02:30 38.65767 13.15832 16890 ft 274 kts 239°
2026-05-04 02:30 38.64717 13.13772 16597 ft 272 kts 239°
2026-05-04 02:30 38.63687 13.11748 16337 ft 270 kts 239°
2026-05-04 02:30 38.62669 13.09748 16069 ft 268 kts 239°
2026-05-04 02:31 38.61657 13.07760 15797 ft 266 kts 239°
2026-05-04 02:31 38.60650 13.05787 15524 ft 264 kts 239°
2026-05-04 02:31 38.59646 13.03826 15256 ft 262 kts 239°
2026-05-04 02:31 38.58650 13.01880 14982 ft 261 kts 239°
2026-05-04 02:32 38.57660 12.99944 14713 ft 260 kts 239°
2026-05-04 02:32 38.56672 12.98014 14443 ft 259 kts 239°
2026-05-04 02:32 38.55685 12.96090 14176 ft 258 kts 239°
2026-05-04 02:32 38.54709 12.94181 13921 ft 256 kts 239°
2026-05-04 02:33 38.53738 12.92280 13621 ft 255 kts 239°
2026-05-04 02:33 38.52772 12.90392 13325 ft 253 kts 239°
2026-05-04 02:33 38.51809 12.88515 13026 ft 252 kts 239°
2026-05-04 02:33 38.50848 12.86649 12714 ft 251 kts 239°
2026-05-04 02:34 38.49893 12.84792 12423 ft 250 kts 239°
2026-05-04 02:34 38.48938 12.82936 12114 ft 249 kts 238°
2026-05-04 02:34 38.47992 12.81097 11811 ft 248 kts 238°
2026-05-04 02:34 38.47047 12.79260 11497 ft 247 kts 238°
2026-05-04 02:35 38.46106 12.77435 11189 ft 246 kts 238°
2026-05-04 02:35 38.45168 12.75621 10873 ft 245 kts 237°
2026-05-04 02:35 38.44033 12.74018 10558 ft 245 kts 218°
2026-05-04 02:35 38.42523 12.73021 10248 ft 246 kts 198°
2026-05-04 02:36 38.40816 12.72773 9881 ft 249 kts 176°
2026-05-04 02:36 38.39144 12.73342 9514 ft 251 kts 156°
2026-05-04 02:36 38.37566 12.74295 9167 ft 250 kts 156°
2026-05-04 02:36 38.36131 12.75526 8844 ft 250 kts 133°
2026-05-04 02:37 38.35226 12.77391 8506 ft 250 kts 108°
2026-05-04 02:37 38.35029 12.79554 8199 ft 246 kts 83°
2026-05-04 02:37 38.35516 12.81625 7879 ft 244 kts 66°
2026-05-04 02:37 38.36192 12.83611 7526 ft 244 kts 66°
2026-05-04 02:38 38.36868 12.85596 7222 ft 243 kts 67°
2026-05-04 02:38 38.37537 12.87565 6923 ft 241 kts 67°
2026-05-04 02:38 38.38200 12.89516 6626 ft 239 kts 68°
2026-05-04 02:38 38.38858 12.91456 6299 ft 238 kts 68°
2026-05-04 02:39 38.39441 12.93418 5973 ft 235 kts 82°
2026-05-04 02:39 38.39307 12.95472 5644 ft 229 kts 115°
2026-05-04 02:39 38.38383 12.97070 5293 ft 225 kts 145°
2026-05-04 02:39 38.37014 12.97998 4998 ft 221 kts 157°
2026-05-04 02:40 38.35649 12.98799 4875 ft 212 kts 157°
2026-05-04 02:40 38.34339 12.99571 4738 ft 203 kts 157°
2026-05-04 02:40 38.33038 13.00161 4535 ft 196 kts 175°
2026-05-04 02:40 38.31713 12.99957 4271 ft 193 kts 202°
2026-05-04 02:41 38.30625 12.98972 3979 ft 194 kts 230°
2026-05-04 02:41 38.29985 12.97460 3696 ft 196 kts 244°
2026-05-04 02:41 38.29450 12.95865 3434 ft 195 kts 244°
2026-05-04 02:41 38.28916 12.94277 3312 ft 196 kts 244°
2026-05-04 02:42 38.28377 12.92682 3188 ft 196 kts 244°
2026-05-04 02:42 38.27838 12.91084 3061 ft 196 kts 244°
2026-05-04 02:42 38.27300 12.89493 2935 ft 196 kts 244°
2026-05-04 02:42 38.26761 12.87902 2885 ft 195 kts 244°
2026-05-04 02:43 38.26222 12.86316 2885 ft 195 kts 243°
2026-05-04 02:43 38.25447 12.84938 2882 ft 192 kts 217°
2026-05-04 02:43 38.24282 12.84170 2883 ft 189 kts 192°
2026-05-04 02:43 38.23009 12.84151 2918 ft 176 kts 167°
2026-05-04 02:44 38.21950 12.84753 2903 ft 160 kts 145°
2026-05-04 02:44 38.21125 12.85614 2884 ft 148 kts 143°
2026-05-04 02:44 38.20336 12.86434 2882 ft 145 kts 143°
2026-05-04 02:44 38.19560 12.87234 2878 ft 143 kts 143°
2026-05-04 02:45 38.18787 12.88030 2875 ft 143 kts 143°
2026-05-04 02:45 38.18011 12.88826 2744 ft 143 kts 143°
2026-05-04 02:45 38.17251 12.89608 2619 ft 139 kts 144°
2026-05-04 02:45 38.16511 12.90375 2493 ft 138 kts 144°
2026-05-04 02:46 38.15770 12.91144 2371 ft 137 kts 144°
2026-05-04 02:46 38.15039 12.91899 2438 ft 136 kts 144°
2026-05-04 02:46 38.14305 12.92656 2462 ft 135 kts 144°
2026-05-04 02:46 38.13620 12.93470 2479 ft 136 kts 131°
2026-05-04 02:47 38.13201 12.94561 2124 ft 146 kts 108°
2026-05-04 02:47 38.13133 12.95467 1679 ft 160 kts 89°
2026-05-04 02:47 38.13452 12.96778 1505 ft 150 kts 69°
2026-05-04 02:47 38.13863 12.97969 1509 ft 147 kts 69°
2026-05-04 02:48 38.14268 12.99177 1485 ft 146 kts 70°
2026-05-04 02:48 38.14663 13.00363 1417 ft 146 kts 72°
2026-05-04 02:48 38.15055 13.01548 1369 ft 146 kts 70°
2026-05-04 02:48 38.15445 13.02732 1258 ft 146 kts 68°
2026-05-04 02:49 38.15839 13.03911 1043 ft 144 kts 65°
2026-05-04 02:49 38.16242 13.05073 812 ft 144 kts 69°
2026-05-04 02:49 38.16630 13.06240 652 ft 144 kts 69°
2026-05-04 02:49 38.17026 13.07416 365 ft 144 kts 70°
2026-05-04 02:50 38.17412 13.08582 94 ft 141 kts 69°
2026-05-04 02:50 38.17757 13.09629 53 ft 109 kts 65°
2026-05-04 02:50 38.17998 13.10337 52 ft 70 kts 66°
2026-05-04 02:50 38.18156 13.10808 53 ft 51 kts 67°
2026-05-04 02:51 38.18282 13.11177 52 ft 43 kts 67°
2026-05-04 02:51 38.18395 13.11521 51 ft 42 kts 67°
2026-05-04 02:51 38.18494 13.11811 53 ft 23 kts 66°
2026-05-04 02:51 38.18592 13.11844 53 ft 11 kts 283°
2026-05-04 02:52 38.18601 13.11764 53 ft 0 kts 277°
2026-05-04 02:53 38.18602 13.11751 53 ft 5 kts 277°
2026-05-04 02:53 38.18609 13.11683 50 ft 11 kts 277°
2026-05-04 02:54 38.18613 13.11563 53 ft 16 kts 258°
2026-05-04 02:54 38.18575 13.11440 53 ft 14 kts 247°
2026-05-04 02:54 38.18535 13.11322 53 ft 12 kts 246°
2026-05-04 02:54 38.18515 13.11232 53 ft 5 kts 285°
2026-05-04 02:55 38.18554 13.11165 53 ft 4 kts 282°
2026-05-04 02:55 38.18547 13.11125 51 ft 7 kts 244°
2026-05-04 02:55 38.18520 13.11047 53 ft 12 kts 247°
2026-05-04 02:56 38.18484 13.10939 53 ft 15 kts 247°
2026-05-04 02:56 38.18490 13.10809 53 ft 16 kts 289°
2026-05-04 02:56 38.18518 13.10693 52 ft 12 kts 317°
2026-05-04 02:56 38.18569 13.10665 53 ft 5 kts 338°